KLM270 EHAM-EKCH

Flight info

Callsign KLM270
Flight time 1h 3m
Altitude 37000
Route ANDIK N873 JUIST DCT DOSUR P729 TUDLO
Aircraft A20N/M-SDE2E3FGHIRWXY/LB1

Departure

Time 2026-05-04 18:48
Airport Amsterdam Airport Schiphol (EHAM)

Arrival

Time 2026-05-04 19:52
Airport Copenhagen Kastrup Airport (EKCH)
Time Latitude Longitude Altitude Speed Heading
2026-05-04 18:29 52.30284 4.76090 -1 ft 0 kts 238°
2026-05-04 18:38 52.30286 4.76097 -1 ft 2 kts 238°
2026-05-04 18:39 52.30294 4.76117 -1 ft 2 kts 239°
2026-05-04 18:39 52.30303 4.76138 -1 ft 2 kts 218°
2026-05-04 18:39 52.30315 4.76150 -1 ft 2 kts 190°
2026-05-04 18:39 52.30329 4.76151 -1 ft 0 kts 164°
2026-05-04 18:41 52.30276 4.76186 -1 ft 15 kts 150°
2026-05-04 18:41 52.30179 4.76221 -1 ft 21 kts 227°
2026-05-04 18:41 52.30083 4.75986 -1 ft 34 kts 233°
2026-05-04 18:42 52.29967 4.75674 -1 ft 26 kts 237°
2026-05-04 18:42 52.29868 4.75422 -1 ft 28 kts 238°
2026-05-04 18:42 52.29899 4.75097 -1 ft 36 kts 308°
2026-05-04 18:42 52.30090 4.74738 2 ft 47 kts 311°
2026-05-04 18:43 52.30303 4.74343 5 ft 36 kts 309°
2026-05-04 18:43 52.30535 4.74196 -1 ft 39 kts
2026-05-04 18:43 52.30832 4.74230 -1 ft 47 kts
2026-05-04 18:43 52.31179 4.74265 -1 ft 52 kts
2026-05-04 18:44 52.31533 4.74297 -1 ft 50 kts
2026-05-04 18:44 52.31761 4.74317 -1 ft 48 kts
2026-05-04 18:44 52.32020 4.74265 -1 ft 17 kts 302°
2026-05-04 18:44 52.32037 4.74072 -2 ft 21 kts 274°
2026-05-04 18:45 52.32047 4.73783 -1 ft 30 kts 272°
2026-05-04 18:45 52.32072 4.73411 -1 ft 35 kts 295°
2026-05-04 18:45 52.32246 4.73139 -1 ft 37 kts 319°
2026-05-04 18:45 52.32450 4.72851 -1 ft 39 kts 320°
2026-05-04 18:46 52.32661 4.72547 -1 ft 42 kts 317°
2026-05-04 18:46 52.32863 4.72182 -1 ft 45 kts 311°
2026-05-04 18:46 52.33066 4.71805 -1 ft 37 kts 311°
2026-05-04 18:46 52.33134 4.71549 -1 ft 18 kts 247°
2026-05-04 18:47 52.33166 4.71372 -1 ft 17 kts 308°
2026-05-04 18:47 52.33257 4.71192 -1 ft 22 kts 313°
2026-05-04 18:47 52.33354 4.71012 -2 ft 24 kts 315°
2026-05-04 18:47 52.33516 4.70953 -2 ft 31 kts
2026-05-04 18:48 52.33963 4.70995 -1 ft 104 kts
2026-05-04 18:48 52.34910 4.71074 127 ft 156 kts
2026-05-04 18:48 52.36023 4.71106 840 ft 167 kts
2026-05-04 18:48 52.37187 4.71150 1360 ft 173 kts
2026-05-04 18:49 52.38433 4.71255 2171 ft 186 kts
2026-05-04 18:49 52.39740 4.71427 2856 ft 195 kts
2026-05-04 18:49 52.41124 4.71656 3514 ft 211 kts
2026-05-04 18:49 52.42628 4.71811 4169 ft 228 kts
2026-05-04 18:50 52.43925 4.71894 4696 ft 242 kts
2026-05-04 18:50 52.45673 4.72015 5350 ft 260 kts
2026-05-04 18:50 52.47524 4.72172 5999 ft 270 kts
2026-05-04 18:50 52.49417 4.72353 6635 ft 275 kts
2026-05-04 18:51 52.51337 4.72548 7244 ft 278 kts
2026-05-04 18:51 52.53229 4.73249 7871 ft 283 kts 25°
2026-05-04 18:51 52.54792 4.75228 8514 ft 290 kts 50°
2026-05-04 18:51 52.55738 4.78163 9182 ft 294 kts 71°
2026-05-04 18:52 52.56329 4.81401 9839 ft 297 kts 75°
2026-05-04 18:52 52.56867 4.84726 10454 ft 307 kts 75°
2026-05-04 18:52 52.57450 4.88189 11072 ft 320 kts 74°
2026-05-04 18:52 52.58099 4.91757 11705 ft 332 kts 70°
2026-05-04 18:53 52.59041 4.95277 12355 ft 342 kts 60°
2026-05-04 18:53 52.60357 4.98596 13005 ft 351 kts 51°
2026-05-04 18:53 52.61900 5.01755 13672 ft 359 kts 50°
2026-05-04 18:53 52.63450 5.04965 14280 ft 366 kts 50°
2026-05-04 18:54 52.65054 5.08316 14897 ft 370 kts 51°
2026-05-04 18:54 52.66616 5.11593 15499 ft 374 kts 51°
2026-05-04 18:54 52.68228 5.14983 16125 ft 378 kts 51°
2026-05-04 18:54 52.69852 5.18402 16769 ft 381 kts 51°
2026-05-04 18:55 52.71496 5.21864 17425 ft 385 kts 51°
2026-05-04 18:55 52.74817 5.28844 18705 ft 392 kts 50°
2026-05-04 18:55 52.76576 5.32313 19292 ft 396 kts 48°
2026-05-04 18:56 52.78381 5.35771 19920 ft 399 kts 48°
2026-05-04 18:56 52.80199 5.39250 20548 ft 402 kts 48°
2026-05-04 18:56 52.82020 5.42765 21186 ft 404 kts 48°
2026-05-04 18:56 52.83849 5.46320 21836 ft 406 kts 48°
2026-05-04 18:57 52.85681 5.49897 22500 ft 408 kts 48°
2026-05-04 18:57 52.87470 5.53402 23168 ft 409 kts 48°
2026-05-04 18:57 52.89303 5.57000 23824 ft 409 kts 48°
2026-05-04 18:57 52.91141 5.60609 24401 ft 409 kts 48°
2026-05-04 18:58 52.92973 5.64209 25004 ft 409 kts 49°
2026-05-04 18:58 52.94799 5.67806 25616 ft 407 kts 49°
2026-05-04 18:58 52.96624 5.71403 26242 ft 405 kts 50°
2026-05-04 18:58 52.98431 5.74967 26877 ft 402 kts 50°
2026-05-04 18:59 53.00223 5.78504 27528 ft 399 kts 50°
2026-05-04 18:59 53.01978 5.81974 28180 ft 394 kts 51°
2026-05-04 18:59 53.03744 5.85472 28870 ft 388 kts 51°
2026-05-04 18:59 53.05461 5.88877 29562 ft 380 kts 52°
2026-05-04 19:00 53.07128 5.92186 30167 ft 375 kts 52°
2026-05-04 19:00 53.08808 5.95533 30460 ft 377 kts 52°
2026-05-04 19:00 53.10500 5.98913 30703 ft 379 kts 52°
2026-05-04 19:00 53.12175 6.02262 30961 ft 381 kts 52°
2026-05-04 19:01 53.13891 6.05697 31217 ft 384 kts 51°
2026-05-04 19:01 53.15591 6.09104 31469 ft 386 kts 51°
2026-05-04 19:01 53.17320 6.12575 31714 ft 388 kts 51°
2026-05-04 19:01 53.19037 6.16028 31962 ft 390 kts 51°
2026-05-04 19:02 53.20788 6.19553 32194 ft 393 kts 51°
2026-05-04 19:02 53.22543 6.23089 32438 ft 395 kts 51°
2026-05-04 19:02 53.24284 6.26603 32666 ft 397 kts 50°
2026-05-04 19:02 53.26057 6.30186 32901 ft 399 kts 50°
2026-05-04 19:03 53.27418 6.32940 33084 ft 400 kts 50°
2026-05-04 19:03 53.29203 6.36556 33303 ft 402 kts 50°
2026-05-04 19:03 53.31000 6.40200 33530 ft 404 kts 50°
2026-05-04 19:03 53.32774 6.43804 33760 ft 406 kts 50°
2026-05-04 19:04 53.34439 6.47189 33947 ft 408 kts 50°
2026-05-04 19:04 53.36228 6.50833 34138 ft 409 kts 49°
2026-05-04 19:04 53.38044 6.54535 34351 ft 410 kts 49°
2026-05-04 19:04 53.39841 6.58205 34550 ft 411 kts 49°
2026-05-04 19:05 53.41662 6.61929 34759 ft 411 kts 49°
2026-05-04 19:05 53.43470 6.65632 34951 ft 412 kts 49°
2026-05-04 19:05 53.45291 6.69367 35128 ft 414 kts 49°
2026-05-04 19:05 53.47132 6.73147 35316 ft 415 kts 49°
2026-05-04 19:06 53.48939 6.76864 35494 ft 416 kts 49°
2026-05-04 19:06 53.50783 6.80664 35671 ft 417 kts 49°
2026-05-04 19:06 53.52602 6.84416 35840 ft 418 kts 49°
2026-05-04 19:06 53.54458 6.88250 36026 ft 419 kts 49°
2026-05-04 19:07 53.56297 6.92013 36167 ft 419 kts 46°
2026-05-04 19:07 53.58331 6.95508 36328 ft 419 kts 43°
2026-05-04 19:07 53.60404 6.98962 36496 ft 420 kts 43°
2026-05-04 19:07 53.62493 7.02453 36657 ft 421 kts 43°
2026-05-04 19:08 53.64547 7.05896 36824 ft 421 kts 43°
2026-05-04 19:08 53.66636 7.09408 36963 ft 422 kts 43°
2026-05-04 19:08 53.70831 7.16482 37017 ft 431 kts 43°
2026-05-04 19:09 53.75114 7.23733 37016 ft 441 kts 43°
2026-05-04 19:09 53.79490 7.31163 37018 ft 452 kts 43°
2026-05-04 19:10 53.83993 7.38835 37018 ft 462 kts 43°
2026-05-04 19:10 53.88576 7.46670 37019 ft 473 kts 43°
2026-05-04 19:11 53.93224 7.54643 37019 ft 476 kts 44°
2026-05-04 19:11 53.97851 7.62608 37024 ft 475 kts 44°
2026-05-04 19:12 54.04382 7.73894 37020 ft 475 kts 44°
2026-05-04 19:13 54.08247 7.80597 37023 ft 475 kts 44°
2026-05-04 19:13 54.12864 7.88631 37018 ft 475 kts 44°
2026-05-04 19:14 54.17479 7.96688 37020 ft 475 kts 44°
2026-05-04 19:14 54.22085 8.04756 37019 ft 474 kts 44°
2026-05-04 19:15 54.26694 8.12859 37014 ft 474 kts 44°
2026-05-04 19:15 54.32038 8.22286 37010 ft 474 kts 44°
2026-05-04 19:16 54.35824 8.28989 37010 ft 474 kts 44°
2026-05-04 19:16 54.40413 8.37139 37006 ft 474 kts 44°
2026-05-04 19:17 54.44984 8.45285 37007 ft 474 kts 44°
2026-05-04 19:17 54.49559 8.53466 37008 ft 475 kts 44°
2026-05-04 19:18 54.54135 8.61676 37001 ft 475 kts 44°
2026-05-04 19:18 54.58674 8.69848 37006 ft 475 kts 44°
2026-05-04 19:19 54.63260 8.78135 37003 ft 475 kts 44°
2026-05-04 19:19 54.67794 8.86354 37004 ft 475 kts 44°
2026-05-04 19:20 54.72371 8.94681 36940 ft 475 kts 44°
2026-05-04 19:20 54.74623 8.98789 36616 ft 475 kts 44°
2026-05-04 19:20 54.76755 9.02686 36248 ft 474 kts 44°
2026-05-04 19:20 54.79061 9.06908 35863 ft 473 kts 44°
2026-05-04 19:21 54.81340 9.11085 35323 ft 475 kts 44°
2026-05-04 19:21 54.83573 9.15183 34723 ft 475 kts 44°
2026-05-04 19:21 54.85847 9.19379 34122 ft 474 kts 46°
2026-05-04 19:21 54.87995 9.23687 33459 ft 472 kts 46°
2026-05-04 19:22 54.90172 9.27973 32785 ft 474 kts 46°
2026-05-04 19:22 54.92360 9.32244 32137 ft 481 kts 46°
2026-05-04 19:22 54.94609 9.36645 31486 ft 487 kts 46°
2026-05-04 19:22 54.96846 9.41050 30861 ft 490 kts 46°
2026-05-04 19:23 54.99097 9.45502 30244 ft 491 kts 46°
2026-05-04 19:23 55.01359 9.49992 29567 ft 489 kts 46°
2026-05-04 19:23 55.03575 9.54398 28877 ft 485 kts 46°
2026-05-04 19:23 55.05804 9.58841 28189 ft 481 kts 46°
2026-05-04 19:24 55.07974 9.63190 27522 ft 477 kts 48°
2026-05-04 19:24 55.09903 9.67910 26871 ft 474 kts 58°
2026-05-04 19:24 55.11382 9.73002 26243 ft 471 kts 67°
2026-05-04 19:24 55.12447 9.78416 25613 ft 467 kts 72°
2026-05-04 19:25 55.13397 9.83779 24998 ft 462 kts 72°
2026-05-04 19:25 55.14349 9.89079 24410 ft 458 kts 72°
2026-05-04 19:25 55.15305 9.94397 23821 ft 454 kts 72°
2026-05-04 19:25 55.16203 9.99428 23200 ft 450 kts 72°
2026-05-04 19:26 55.17136 10.04678 22514 ft 446 kts 72°
2026-05-04 19:26 55.18041 10.09803 21847 ft 442 kts 72°
2026-05-04 19:26 55.18946 10.14941 21199 ft 439 kts 72°
2026-05-04 19:26 55.19832 10.19992 20560 ft 435 kts 72°
2026-05-04 19:27 55.20720 10.25064 19963 ft 431 kts 72°
2026-05-04 19:27 55.21589 10.30042 19362 ft 424 kts 72°
2026-05-04 19:27 55.22438 10.34922 18842 ft 410 kts 72°
2026-05-04 19:27 55.23248 10.39587 18369 ft 397 kts 72°
2026-05-04 19:28 55.24044 10.44186 17837 ft 386 kts 72°
2026-05-04 19:28 55.24816 10.48651 17311 ft 386 kts 72°
2026-05-04 19:28 55.25602 10.53207 16777 ft 387 kts 72°
2026-05-04 19:28 55.26351 10.57559 16276 ft 378 kts 72°
2026-05-04 19:29 55.27117 10.62025 15762 ft 379 kts 72°
2026-05-04 19:29 55.27867 10.66406 15266 ft 377 kts 72°
2026-05-04 19:29 55.28624 10.70816 14766 ft 374 kts 72°
2026-05-04 19:29 55.29369 10.75148 14288 ft 371 kts 72°
2026-05-04 19:30 55.30117 10.79510 13815 ft 373 kts 72°
2026-05-04 19:30 55.30850 10.83796 13290 ft 371 kts 72°
2026-05-04 19:30 55.31543 10.87865 12792 ft 369 kts 72°
2026-05-04 19:30 55.32284 10.92228 12273 ft 367 kts 72°
2026-05-04 19:31 55.32997 10.96435 12031 ft 356 kts 72°
2026-05-04 19:31 55.33700 11.00617 11971 ft 357 kts 73°
2026-05-04 19:31 55.34404 11.04841 11972 ft 359 kts 73°
2026-05-04 19:31 55.35096 11.09017 11968 ft 358 kts 73°
2026-05-04 19:32 55.35789 11.13202 11966 ft 358 kts 73°
2026-05-04 19:32 55.36486 11.17421 11964 ft 358 kts 73°
2026-05-04 19:32 55.37184 11.21657 11966 ft 358 kts 73°
2026-05-04 19:32 55.37871 11.25830 11965 ft 358 kts 73°
2026-05-04 19:33 55.38566 11.30064 11964 ft 358 kts 73°
2026-05-04 19:33 55.39252 11.34253 11963 ft 358 kts 73°
2026-05-04 19:33 55.39947 11.38506 11964 ft 358 kts 73°
2026-05-04 19:33 55.40628 11.42683 11897 ft 356 kts 73°
2026-05-04 19:34 55.41307 11.46865 11504 ft 352 kts 73°
2026-05-04 19:34 55.41977 11.50997 10897 ft 354 kts 73°
2026-05-04 19:34 55.42660 11.55214 10293 ft 357 kts 73°
2026-05-04 19:34 55.43338 11.59384 9667 ft 358 kts 71°
2026-05-04 19:35 55.44459 11.63283 8994 ft 355 kts 50°
2026-05-04 19:35 55.46257 11.66120 8447 ft 336 kts 26°
2026-05-04 19:35 55.48334 11.67608 8098 ft 317 kts 14°
2026-05-04 19:35 55.50351 11.68791 7974 ft 295 kts 14°
2026-05-04 19:36 55.52230 11.69913 7966 ft 273 kts 14°
2026-05-04 19:36 55.54030 11.70998 7962 ft 276 kts 14°
2026-05-04 19:36 55.55852 11.72099 7951 ft 275 kts 14°
2026-05-04 19:36 55.57668 11.73200 7964 ft 274 kts 14°
2026-05-04 19:37 55.59460 11.74285 7965 ft 275 kts 14°
2026-05-04 19:37 55.61281 11.75391 7950 ft 275 kts 14°
2026-05-04 19:37 55.63054 11.76594 7951 ft 278 kts 25°
2026-05-04 19:37 55.64528 11.78878 7969 ft 285 kts 53°
2026-05-04 19:38 55.65345 11.82075 7966 ft 290 kts 72°
2026-05-04 19:38 55.65872 11.85535 7955 ft 289 kts 75°
2026-05-04 19:38 55.66336 11.88969 7955 ft 289 kts 76°
2026-05-04 19:38 55.66812 11.92449 7956 ft 290 kts 75°
2026-05-04 19:39 55.67300 11.95881 7963 ft 290 kts 75°
2026-05-04 19:39 55.67810 11.99359 7969 ft 289 kts 74°
2026-05-04 19:39 55.68325 12.02828 7964 ft 290 kts 74°
2026-05-04 19:39 55.68838 12.06265 7942 ft 290 kts 74°
2026-05-04 19:40 55.69352 12.09710 7769 ft 289 kts 74°
2026-05-04 19:40 55.69753 12.13198 7565 ft 287 kts 79°
2026-05-04 19:40 55.70127 12.16700 7362 ft 287 kts 78°
2026-05-04 19:40 55.70495 12.20151 7159 ft 286 kts 78°
2026-05-04 19:41 55.70855 12.23626 6927 ft 285 kts 79°
2026-05-04 19:41 55.71202 12.27057 6571 ft 285 kts 79°
2026-05-04 19:41 55.71548 12.30539 6182 ft 285 kts 79°
2026-05-04 19:41 55.71890 12.34013 5792 ft 284 kts 79°
2026-05-04 19:42 55.72226 12.37445 5411 ft 284 kts 79°
2026-05-04 19:42 55.72564 12.40906 5027 ft 283 kts 79°
2026-05-04 19:42 55.72897 12.44323 4654 ft 282 kts 79°
2026-05-04 19:42 55.73233 12.47784 4260 ft 281 kts 79°
2026-05-04 19:43 55.73559 12.51164 4039 ft 274 kts 79°
2026-05-04 19:43 55.73873 12.54426 3994 ft 261 kts 79°
2026-05-04 19:43 55.74184 12.57645 3998 ft 268 kts 79°
2026-05-04 19:43 55.74495 12.60890 3999 ft 266 kts 79°
2026-05-04 19:44 55.75035 12.64041 4000 ft 264 kts 58°
2026-05-04 19:44 55.76205 12.66474 3996 ft 260 kts 38°
2026-05-04 19:44 55.77566 12.68537 3995 ft 260 kts 38°
2026-05-04 19:44 55.78903 12.70735 3964 ft 262 kts 49°
2026-05-04 19:45 55.79936 12.73440 3774 ft 264 kts 55°
2026-05-04 19:45 55.80912 12.76142 3548 ft 259 kts 55°
2026-05-04 19:45 55.81879 12.78824 3308 ft 254 kts 55°
2026-05-04 19:45 55.82666 12.81623 3074 ft 251 kts 76°
2026-05-04 19:46 55.82628 12.84588 2985 ft 233 kts 109°
2026-05-04 19:46 55.81837 12.86855 2981 ft 208 kts 134°
2026-05-04 19:46 55.80881 12.88685 2997 ft 202 kts 135°
2026-05-04 19:46 55.79770 12.90092 2988 ft 195 kts 168°
2026-05-04 19:47 55.78885 12.90287 3014 ft 190 kts 188°
2026-05-04 19:47 55.77279 12.89234 2994 ft 184 kts 217°
2026-05-04 19:47 55.76586 12.88361 2990 ft 182 kts 222°
2026-05-04 19:47 55.75298 12.86442 2991 ft 182 kts 225°
2026-05-04 19:48 55.74656 12.85453 2992 ft 182 kts 225°
2026-05-04 19:48 55.73696 12.83978 2954 ft 182 kts 225°
2026-05-04 19:48 55.72773 12.82553 2762 ft 184 kts 225°
2026-05-04 19:48 55.71814 12.81075 2509 ft 181 kts 225°
2026-05-04 19:49 55.70867 12.79613 2255 ft 182 kts 225°
2026-05-04 19:49 55.69907 12.78133 2006 ft 178 kts 225°
2026-05-04 19:49 55.69009 12.76750 1777 ft 169 kts 225°
2026-05-04 19:49 55.68115 12.75367 1529 ft 167 kts 225°
2026-05-04 19:50 55.67281 12.74081 1322 ft 156 kts 225°
2026-05-04 19:50 55.66487 12.72855 1114 ft 146 kts 225°
2026-05-04 19:50 55.65732 12.71687 908 ft 145 kts 225°
2026-05-04 19:50 55.64963 12.70497 696 ft 146 kts 224°
2026-05-04 19:51 55.64200 12.69319 491 ft 142 kts 223°
2026-05-04 19:51 55.63484 12.68215 303 ft 132 kts 224°
2026-05-04 19:51 55.62795 12.67148 122 ft 131 kts 224°
2026-05-04 19:51 55.62122 12.66108 18 ft 121 kts 221°
2026-05-04 19:52 55.61673 12.65412 17 ft 51 kts 223°
2026-05-04 19:52 55.61599 12.65115 17 ft 8 kts 264°
2026-05-04 19:52 55.61599 12.65060 17 ft 15 kts 282°
2026-05-04 19:52 55.61680 12.64894 18 ft 11 kts 314°
2026-05-04 19:53 55.61699 12.64856 18 ft 0 kts 313°
2026-05-04 19:53 55.61731 12.64820 19 ft 12 kts 338°
2026-05-04 19:53 55.61743 12.64811 19 ft 0 kts 338°
2026-05-04 19:54 55.61749 12.64807 19 ft 4 kts 339°
2026-05-04 19:54 55.61837 12.64799 19 ft 20 kts 32°
2026-05-04 19:55 55.61926 12.64849 17 ft 12 kts 23°
2026-05-04 19:55 55.61954 12.64877 18 ft 8 kts 37°
2026-05-04 19:55 55.61982 12.64914 20 ft 0 kts 34°
2026-05-04 19:56 55.61983 12.64914 20 ft 0 kts 28°
2026-05-04 19:56 55.61985 12.64916 19 ft 0 kts 28°